カタログに戻る

FENGYUN 1C DEB

運用中SSO
NORAD 31157·DEBRIS·🇨🇳 China

打ち上げ May 10, 1999 から Taiyuan Satellite Launch Center

Loading…

次のパス (今後24時間)

TLE

最新Source: Space-Track

元期: Sep 12, 2026, 03:58 UTC

1 31157U 99025BHK 26255.16538631  .00000254  00000-0  12591-3 0  9997
2 31157  98.5055 233.9317 0098629 249.4333 109.6243 14.22862700  8602

AllMySatでFENGYUN 1C DEBをリアルタイム追跡

Download on the App Store